Regional Weather Roundup
Issued by NWS

Home | Current Version | Previous Version | Graphics & Text | Print | Product List | Glossary On
Versions: 1 2 3 4 5 6 7 8 9 10 11 12 13 14 15 16 17 18 19 20 21 22 23 24 25 26 27 28 29 30 31 32 33 34 35 36 37 38 39 40 41 42 43 44 45 46 47 48
000
ASUS43 KDMX 210107
RWRIA

WEATHER ROUNDUP FOR IOWA
NATIONAL WEATHER SERVICE DES MOINES IA
800 PM CDT WED AUG 20 2014

NOTE: "FAIR" INDICATES FEW OR NO CLOUDS BELOW 12,000 FEET WITH NO
SIGNIFICANT WEATHER AND/OR OBSTRUCTIONS TO VISIBILITY.

* - THESE STATIONS ARE NOT NWS STATIONS...THUS NOT UNDER NWS
QUALITY CONTROL.  THEY ALSO DO NOT REPORT WEATHER SUCH
AS PRECIPITATION OR FOG.

IAZ001>003-012>014-020>022-031>034-043>046-210200-
   NORTHWEST IOWA

CITY           SKY/WX    TMP DP  RH WIND       PRES   REMARKS
CARROLL *      CLEAR     77  73  88 CALM      29.80F
CHEROKEE *     CLOUDY    77  75  94 E3        29.80S
DENISON *      CLEAR     81  75  83 S10       29.77F HX  86
LE MARS *      CLEAR     77  75  94 CALM      29.78S
ORANGE CITY *  CLEAR     73  70  88 E5        29.79F
SHELDON *      PTCLDY    72  70  94 SE8       29.80R
SIOUX CITY     MOCLDY    81  76  84 SE7       29.75S HX  87
SPENCER        CLOUDY    72  68  87 SE9       29.82F
STORM LAKE *   CLEAR     77  77 100 SE6G12    29.82R
$$

IAZ055>058-069>071-079>083-090>094-210200-
   SOUTHWEST IOWA

CITY           SKY/WX    TMP DP  RH WIND       PRES   REMARKS
ATLANTIC *     CLEAR     82  75  78 SE10G18   29.80S HX  89
AUDUBON *      CLEAR     82  77  83 CALM      29.83S HX  91
CLARINDA *     CLEAR     82  75  78 SE6       29.82S HX  89
COUNCIL BLFS * CLEAR     82  77  83 SE13      29.77F HX  91
CRESTON *      CLEAR     79  75  89 SE7       29.85S HX  82
HARLAN  *      CLEAR     81  77  89 S6G12     29.83S HX  88
LAMONI         CLEAR     82  75  79 SE7       29.85F HX  89
RED OAK *      CLEAR     84  73  70 SE8       29.80F HX  91
SHENANDOAH *   CLEAR     82  75  78 SE9       29.79F HX  89
$$

IAZ047>049-059>061-072>074-084-210200-
   CENTRAL IOWA

CITY           SKY/WX    TMP DP  RH WIND       PRES   REMARKS
AMES           MOCLDY    76  72  87 S5        29.82F
ANKENY *       CLEAR     79  73  83 SE5       29.82F HX  82
CHARITON *     CLEAR     79  75  89 S8        29.85F HX  82
DES MOINES     PTCLDY    80  73  79 S7        29.82S HX  84
GRINNELL*      MOCLDY    75  72  88 SE7       29.86F
KNOXVILLE *    CLEAR     79  73  83 S7        29.83F HX  82
MARSHALLTOWN   CLOUDY    73  71  93 SE9       29.84F
PELLA *        MOCLDY    79  73  83 SE3       29.85F HX  82
PERRY *          N/A     77  73  88 S6        29.82S
$$

IAZ004>006-015-016-023>025-035-036-210200-
   NORTH CENTRAL IOWA

CITY           SKY/WX    TMP DP  RH WIND       PRES   REMARKS
ALGONA *       DRIZZLE   72  70  94 SE5       29.85S
CLARION *      CLEAR     73  70  88 SE5       29.85S
ESTHERVILLE    CLOUDY    70  68  93 SE12      29.82F
FORT DODGE *   CLOUDY    72  70  94 E5        29.84S
MASON CITY     CLOUDY    72  69  90 SE6       29.88R
FOREST CITY *  CLEAR     72  70  94 SE6       29.86S
IOWA FALLS *     N/A     72  68  88 SE6       29.86R
$$

IAZ007>011-017>019-026>030-037>042-050>054-066-210200-
   NORTHEAST IOWA

CITY           SKY/WX    TMP DP  RH WIND       PRES   REMARKS
CEDAR RAPIDS   CLOUDY    73  70  90 E5        29.89R
CHARLES CITY * PTCLDY    72  68  88 E7        29.87F
CLINTON *      CLOUDY    72  66  83 CALM      29.93F
DECORAH *      CLEAR     73  70  88 VRB3      29.89R
DUBUQUE        CLOUDY    71  68  90 S5        29.91F
MONTICELLO *   CLOUDY    72  72 100 CALM      29.90R
OELWEIN *      CLOUDY    70  68  94 SE6       29.90S
WATERLOO       CLOUDY    71  68  90 E9        29.85F
$$

IAZ064-065-067-068-078-210200-
   EAST CENTRAL IOWA

CITY           SKY/WX    TMP DP  RH WIND       PRES   REMARKS
DAVENPORT      MOCLDY    72  68  87 NE6       29.90S
IOWA CITY      CLOUDY    74  71  91 SE5       29.88F
MT. PLEASANT * MOCLDY    79  73  83 SE3       29.87F HX  82
MUSCATINE *    CLEAR     75  72  88 CALM      29.87F
QUAD CITIES    MOCLDY    76  69  79 CALM      29.89S
$$

IAZ062-063-075>077-085>089-095>099-210200-
   SOUTHEAST IOWA

CITY           SKY/WX    TMP DP  RH WIND       PRES   REMARKS
BURLINGTON     MOCLDY    75  72  90 S6        29.87F
FAIRFIELD *    CLEAR     77  73  88 S6        29.87S
FORT MADISON * CLEAR     79  75  89 SE3       29.89S HX  82
KEOKUK *       CLEAR     79  77  94 SE5       29.87S HX  83
OSKALOOSA *      N/A     75  73  94 S5        29.85F
CENTERVILLE *  CLEAR     77  77 100 SE5       29.88F
OTTUMWA        PTCLDY    77  73  87 S6        29.85F
WASHINGTON *   CLEAR     73  73 100 E5        29.87S
$$

ABBREVIATIONS USED IN REMARKS
   TC - TEMPERATURES IN CELSIUS
  WCI - WIND CHILL INDEX
   HX - HEAT INDEX
  VSB - VISIBILITY
$$




USA.gov is the U.S. government's official web portal to all federal, state and local government web resources and services.